SCP
0 0 0 0 0 0 0 0 0 0 0 0 0 0 0 0 1 1 1 1 1 1 1 1 1 1 1 1 1 1 1 1 1 1 1 1 1 1 0 0 0 0 0 1
0 0 0 0 0 0 0 0 0 0 0 0 0 0 0 0 0 1 1 1 1 1 1 1 1 1 1 1 1 1 1 1 1 1 1 1 1 1 0 0 0 0 0 0
0 0 0 0 0 0 0 0 0 0 0 0 0 0 0 0 0 0 1 1 1 1 1 1 1 1 1 1 1 1 1 1 1 1 1 1 1 1 0 0 0 0 0 0
0 0 0 0 0 0 0 0 0 0 0 0 0 0 0 0 0 0 0 1 1 1 1 1 1 1 1 1 1 1 1 1 1 1 1 1 1 1 0 0 0 0 0 0
0 0 0 0 0 0 0 0 0 0 0 0 0 0 0 0 0 0 0 0 1 1 1 1 1 1 1 1 1 1 1 1 1 1 1 1 1 1 0 0 0 0 0 0
0 0 0 0 0 0 0 0 0 0 0 0 0 0 0 0 0 0 0 0 0 0 1 1 1 1 1 1 1 1 1 1 1 1 1 1 1 1 0 0 0 0 0 0
0 0 0 0 0 0 0 0 0 0 0 0 0 0 0 0 0 0 0 0 0 0 0 0 1 1 1 1 1 1 1 1 1 1 1 1 1 1 0 0 0 0 0 0
0 0 0 0 0 0 0 0 0 0 0 0 0 0 0 0 0 0 0 0 0 0 0 0 0 1 1 1 1 1 1 1 1 1 1 1 1 1 0 0 0 0 0 0
0 0 0 0 0 0 0 0 0 0 0 0 0 0 0 0 0 0 0 0 0 0 0 0 0 0 0 0 0 0 1 1 1 1 1 0 0 0 0 0 0 0 0 0
0 0 0 0 0 0 0 0 0 0 0 0 0 0 0 0 0 0 0 0 0 0 0 0 0 0 0 0 0 0 0 0 0 0 0 0 0 0 0 0 0 0 0 0
0 0 0 0 0 0 0 0 0 0 0 0 0 0 0 0 0 0 0 0 0 0 0 0 0 0 0 0 0 0 0 0 0 0 0 0 0 0 0 0 0 0 0 0
0 0 0 0 0 0 0 0 0 0 0 0 0 0 0 0 0 0 0 0 0 0 0 0 0 0 0 0 0 0 0 0 0 0 0 0 0 0 0 0 0 0 0 0
0 0 0 0 0 0 0 0 0 0 0 0 0 0 0 0 0 0 0 0 0 0 0 0 0 0 0 0 0 0 0 0 0 0 0 0 0 0 0 0 0 0 0 0
0 0 0 0 0 0 0 0 0 0 0 0 0 0 0 0 0 0 0 0 0 0 0 0 0 0 0 0 0 0 0 0 0 0 0 0 0 0 0 0 0 0 0 0
0 0 0 0 0 0 0 0 0 0 0 0 0 0 0 0 0 0 0 0 0 0 0 0 0 0 0 0 0 0 0 0 0 1 0 0 0 0 0 0 0 0 0 0
0 0 0 0 0 0 0 0 0 0 0 0 0 0 0 0 0 0 0 0 0 0 0 0 0 0 0 0 0 0 0 0 0 1 1 0 0 0 0 0 0 0 0 0
0 0 0 0 0 0 0 0 0 0 0 0 0 0 0 0 0 0 0 0 0 0 0 0 0 0 0 0 0 0 0 0 0 1 1 0 0 0 0 0 0 0 0 0
0 0 0 0 0 0 0 0 0 0 0 0 0 0 0 0 0 0 0 0 0 0 0 0 0 0 0 0 0 0 0 0 0 1 1 0 0 0 0 0 0 0 0 0
0 0 0 0 0 0 0 0 0 0 0 0 0 0 0 0 0 0 0 0 0 0 0 0 0 0 0 0 0 0 0 0 0 0 0 0 0 0 0 0 0 0 0 0
0 0 0 0 0 0 0 0 0 0 0 0 0 0 0 0 0 0 0 0 0 0 0 0 0 0 0 0 0 0 0 0 0 0 0 0 0 0 0 0 0 0 0 0
0 0 0 0 0 0 0 0 0 0 0 0 0 0 0 0 0 0 0 0 0 0 0 0 0 0 0 0 0 0 0 0 0 0 0 0 0 0 0 0 0 0 0 0
0 0 0 0 0 0 0 0 0 0 0 0 0 0 0 0 0 0 0 0 0 0 0 0 0 0 0 0 0 0 0 0 0 0 0 0 0 0 0 0 0 0 0 0
0 0 0 0 0 0 0 0 0 0 0 0 0 0 0 0 0 0 0 0 0 0 0 0 0 0 0 0 0 0 0 0 0 0 0 0 0 0 0 0 0 0 0 0
0 0 0 0 0 0 0 0 0 0 0 0 0 0 0 0 0 0 0 0 0 0 0 0 0 0 0 0 0 0 0 0 0 0 0 0 0 0 0 0 0 0 0 0
0 0 0 0 0 0 0 0 0 0 0 0 0 0 0 0 0 0 0 0 0 0 0 0 0 0 0 0 0 0 0 0 0 0 0 0 0 0 0 0 0 0 0 0
0 0 0 0 0 0 0 0 0 0 0 0 0 0 0 0 0 0 0 0 0 0 0 0 0 0 0 0 0 0 0 0 0 0 0 0 0 0 0 0 0 0 0 0
Wind_Speed
2 4 2 5 5 5 3 2 3 4 2 2 4 5 7 7 7 8 9 9 9 8 7 6 6 6 6 6 6 5 4 3 3 2 2 2 1 1 0 0 0 0 0 1
5 3 7 5 2 1 1 1 3 4 1 2 2 2 3 6 7 8 9 10 10 9 8 7 5 6 6 6 6 5 5 3 2 2 1 1 1 1 0 1 1 1 0 1
3 6 4 1 1 1 3 3 3 2 2 5 4 3 2 1 3 4 5 7 10 13 12 10 8 5 5 6 6 5 4 3 2 2 2 2 2 2 2 2 2 2 1 0
3 4 2 2 4 2 4 5 3 1 3 1 1 2 3 2 1 3 4 6 7 9 8 8 7 6 6 5 5 5 4 4 3 3 3 3 2 1 0 1 1 2 2 1
4 3 2 2 5 3 4 2 1 1 2 2 2 1 4 1 2 3 4 6 7 8 9 8 7 6 5 5 5 5 5 4 3 3 3 3 2 1 0 1 1 2 2 2
5 4 2 4 4 1 1 5 6 6 5 2 3 2 4 3 5 4 3 5 6 8 8 7 5 6 5 5 5 4 4 3 3 3 3 3 3 2 2 1 1 1 1 2
7 6 3 1 3 5 5 6 5 6 4 3 3 1 5 5 3 4 4 4 5 7 7 6 6 6 6 6 5 4 4 3 2 3 2 2 3 2 2 1 0 0 1 1
2 5 4 3 1 2 1 7 6 3 4 4 3 2 4 2 1 4 4 5 5 6 7 6 5 5 6 6 5 5 5 3 3 3 2 2 2 1 1 1 0 0 1 1
1 5 5 5 3 2 1 1 5 6 0 1 3 3 3 2 3 5 5 5 4 5 6 6 5 5 6 6 5 5 4 3 3 2 2 2 1 1 0 0 0 0 1 1
2 3 6 5 5 4 3 3 5 4 2 2 3 3 4 3 3 3 4 4 4 4 4 4 4 4 5 5 4 4 5 4 3 3 2 2 1 1 1 1 1 0 1 1
2 1 6 4 2 2 3 2 4 3 4 4 3 6 5 7 7 7 6 6 6 5 4 3 4 3 4 4 4 4 3 3 3 2 2 2 1 1 1 1 1 1 1 1
1 3 2 5 5 2 1 1 4 3 3 3 3 7 4 6 6 7 6 6 6 5 5 5 4 4 4 4 3 3 3 3 3 2 2 2 2 2 1 1 1 1 1 1
2 4 3 8 8 6 4 2 0 2 3 3 3 6 2 3 4 6 7 6 6 5 6 5 4 4 4 4 3 3 3 3 2 3 3 2 2 1 1 0 1 1 1 2
3 3 4 5 7 5 6 7 4 1 2 3 5 6 4 5 6 6 7 7 6 6 6 6 4 3 3 4 3 3 3 2 3 3 3 2 1 1 1 0 1 1 1 1
4 0 3 5 6 5 6 7 5 3 5 6 7 6 8 9 9 8 7 7 7 7 7 6 5 3 3 3 3 3 2 2 3 3 2 2 2 1 1 0 1 1 1 1
2 0 3 6 6 6 8 7 5 4 3 3 3 4 3 5 6 7 7 8 8 7 7 6 5 5 4 4 4 3 3 3 3 3 3 2 2 1 1 0 0 1 2 1
1 1 1 5 6 4 6 5 3 3 3 4 5 6 6 6 8 9 9 9 9 8 7 6 6 5 4 4 4 4 3 3 3 3 3 2 2 2 1 1 0 1 1 1
4 2 2 2 3 3 7 4 2 1 0 1 3 5 8 8 7 7 7 9 8 8 7 6 5 4 3 3 3 3 3 3 3 3 3 3 2 2 1 0 0 1 1 1
5 5 2 1 2 6 6 4 2 0 2 1 5 5 4 5 5 1 5 8 8 8 6 5 5 4 3 3 4 3 2 2 2 3 3 3 3 2 2 1 1 1 1 1
3 3 3 2 2 5 6 4 2 1 2 2 3 5 6 6 3 5 6 7 7 6 5 5 4 4 4 3 4 4 3 2 2 3 3 3 3 3 3 2 2 1 1 1
4 3 0 2 4 6 5 5 3 1 6 3 2 5 6 5 6 5 8 7 7 7 6 6 5 4 3 3 4 4 3 3 4 3 3 2 2 3 3 2 1 1 0 1
2 1 2 1 3 7 4 3 1 5 3 2 2 3 3 3 3 7 9 9 8 7 6 6 5 4 3 4 5 4 4 3 2 2 2 2 2 2 2 1 1 1 0 1
3 4 4 5 7 6 3 3 3 1 0 2 3 3 4 3 4 6 7 8 8 7 6 5 6 4 2 3 5 5 4 3 3 2 2 2 2 1 1 2 1 1 1 1
4 2 2 4 6 6 5 3 2 1 1 1 2 3 4 4 6 7 7 7 7 6 6 5 6 5 3 3 4 4 4 4 3 2 2 2 1 1 1 1 2 2 2 2
7 3 4 7 7 6 4 2 1 1 1 0 0 1 4 5 6 7 7 7 7 6 5 6 6 6 5 4 4 4 4 4 4 3 2 1 1 1 1 2 2 3 4 4
7 7 7 9 9 5 8 5 3 1 2 2 1 0 2 4 6 7 7 7 7 7 6 6 6 5 5 5 5 4 4 5 4 3 2 2 2 2 1 1 3 5 5 7
Wind_Direction
342 57 279 247 215 201 202 235 262 270 233 128 154 159 164 180 168 168 167 160 155 155 146 137 143 143 135 133 132 134 131 134 130 123 127 123 120 102 43 356 18 174 181 172
17 281 243 234 246 202 207 283 300 312 318 111 153 160 166 178 174 176 169 163 159 152 141 144 156 152 152 146 141 140 144 146 141 139 138 128 132 136 131 355 355 337 282 236
203 246 245 242 298 325 290 241 241 252 5 34 65 17 345 316 126 147 159 163 161 162 161 163 170 167 149 147 152 146 141 127 121 114 100 84 64 45 33 8 343 323 341 8
244 261 274 300 283 239 269 256 198 155 80 336 81 245 275 240 127 160 171 164 164 164 160 162 160 160 152 150 144 126 126 123 120 115 116 117 119 130 239 293 315 332 360 7
271 265 279 275 267 235 236 256 80 70 87 41 1 132 279 264 233 224 189 170 162 158 150 156 159 153 146 144 134 124 122 117 117 117 125 122 110 109 50 20 7 360 358 4
274 273 223 237 266 248 78 41 25 40 64 10 267 179 265 240 227 216 186 166 159 147 146 157 153 135 129 128 127 124 121 119 117 115 116 121 121 111 92 43 17 7 2 359
330 331 323 359 20 355 55 69 30 6 11 258 269 175 245 249 213 182 172 160 150 144 145 146 140 142 147 146 140 135 130 127 121 113 110 125 135 139 145 171 224 360 355 336
347 311 315 329 197 209 194 127 149 195 234 277 324 242 260 265 166 133 134 129 122 134 141 147 152 155 155 151 146 141 142 140 132 127 131 123 120 131 165 199 207 236 262 273
202 275 300 320 320 135 91 110 164 140 166 338 294 287 303 44 79 105 104 110 113 131 140 149 144 146 146 146 148 149 146 137 134 134 120 101 102 105 81 310 234 244 273 278
141 285 301 316 14 23 123 143 81 93 126 274 291 275 253 203 180 155 137 137 129 125 130 136 138 143 139 142 140 130 133 136 134 124 120 123 120 122 110 81 50 349 294 308
89 117 316 350 5 315 1 40 96 114 158 161 248 265 238 193 185 178 168 154 149 141 134 125 136 145 137 130 132 130 135 130 125 127 122 113 99 73 65 54 13 333 326 339
45 111 292 282 280 250 175 162 128 139 233 180 194 262 269 181 175 170 161 151 150 146 143 131 130 133 135 137 137 131 138 137 149 144 124 123 113 94 76 22 337 340 343 349
48 87 12 342 343 355 354 333 326 150 143 183 200 257 273 141 159 162 156 151 150 149 142 132 127 136 139 141 142 143 149 153 154 136 125 124 123 122 133 265 328 345 349 347
75 110 165 212 247 270 295 295 285 154 183 225 223 227 227 195 179 170 159 159 160 161 153 148 145 143 151 152 151 150 162 165 152 138 134 146 168 169 194 267 357 352 346 357
68 169 253 255 266 273 285 289 284 264 218 212 235 219 215 195 181 170 158 158 159 159 158 157 155 158 168 164 162 163 171 178 160 146 153 182 190 176 175 350 343 338 337 349
46 238 314 302 294 298 298 297 294 288 265 215 206 236 200 163 150 156 165 164 166 167 164 164 165 173 181 176 170 169 182 188 167 164 183 188 179 178 197 237 309 337 339 347
207 143 339 291 297 327 297 271 270 269 249 187 201 206 158 155 170 176 175 173 170 167 165 169 175 179 183 180 171 179 191 183 172 178 180 176 178 183 216 235 43 324 329 359
185 183 190 266 347 262 254 269 254 220 280 154 146 161 167 170 174 174 172 170 168 165 169 175 174 173 177 174 172 175 173 169 172 177 179 180 174 183 183 110 306 294 302 327
181 171 177 178 240 272 289 313 332 332 287 220 137 143 142 127 100 151 182 168 169 170 170 174 171 169 166 162 163 150 154 160 169 182 189 191 177 174 176 207 251 254 258 305
60 116 147 186 228 254 259 298 310 75 278 283 137 155 153 138 169 225 188 165 159 159 158 158 157 145 149 169 157 146 160 162 193 202 202 194 178 174 195 220 242 247 231 256
357 2 8 227 238 258 274 314 16 133 252 256 175 178 177 192 208 186 158 154 155 156 155 150 145 146 168 173 152 152 164 198 217 200 176 178 173 187 202 218 230 239 273 321
235 224 251 219 232 251 304 359 234 237 263 227 198 190 196 199 167 149 152 154 153 150 148 145 145 154 171 162 149 155 185 205 190 162 159 180 195 210 188 191 253 261 244 307
241 209 204 205 230 260 290 254 254 232 250 244 212 201 161 160 166 158 156 155 155 154 155 151 150 152 162 166 157 165 194 184 167 159 179 197 207 225 204 198 228 263 262 252
276 270 263 276 270 283 290 290 321 302 257 265 224 195 169 172 163 157 156 156 157 158 159 154 150 155 174 185 179 185 188 172 157 170 194 196 190 267 286 255 221 217 235 246
253 277 270 270 277 299 282 254 247 315 316 149 196 220 177 158 164 163 164 164 163 163 162 157 162 171 184 186 190 195 183 168 167 177 185 197 206 226 272 287 263 242 239 224
240 227 232 251 249 243 265 261 254 230 224 186 136 45 188 172 173 165 164 166 162 162 162 163 167 172 183 184 192 200 185 172 168 176 195 206 218 240 247 278 308 297 269 266